Content
SEND FEEDBACK

Daily
Averages
Monthly
Summary
United States of America

STATEN ISLAND, NEW YORK


Home > North America > United States > New York
Elevation: 152 feet     Latitude: 40 35N     Longitude: 074 09W

WEATHER
 
SELECT A DAY
Number of Records: 193,870;   Date Range: 1/1/95 - 12/16/14
 
SHARE

PRINT THIS DATA

[ ← Previous Day ]
WEATHER ALMANAC - JANUARY 3, 2013
[ Next Day → ]
[ °C ]   °F
Weather ElementAverageHighLow
Temperature29.6 °F34 °F (1:51 pm)26.1 °F (4:51 am)
Dewpoint15.1 °F18 °F (11:51 pm)12.2 °F (2:51 pm)
Humidity55.4 %66 % (6:51 am)41 % (2:51 pm)
Barometer30.14 in30.21 in (9:51 am)30.08 in (11:51 pm)
Wind Speed8.6 mph12.7 mph (9:51 pm)
Weather ElementAverage
Visibility10 mi
Wind DirectionWSW (255.2 °)

Weather ElementTotal
Precipitation---
Heating Degree Days35 (Base 65)
Averaged from 23 records on January 3, 2013
WEATHER CONDITIONS BREAKOUT
WIND DIRECTION BREAKOUT
WEATHER BY HOUR - JANUARY 3, 2013
[ °C ]   °F
Local TimeTemperatureDewpointHumidityBarometerVisibilityWind DirectionWind SpeedGust SpeedPrecipitationEventsConditions
1:51 AM28.0 °F15.1 °F58 %30.19 in10.0 miWest (280°)10.4 mphMostly Cloudy
2:51 AM27.0 °F15.1 °F61 %30.19 in10.0 miWest (270°)8.1 mphMostly Cloudy
3:51 AM27.0 °F15.1 °F61 %30.19 in10.0 miWest (280°)6.9 mphOvercast
4:51 AM26.1 °F15.1 °F63 %30.18 in10.0 miWNW (290°)5.8 mphOvercast
5:51 AM26.1 °F15.1 °F63 %30.18 in10.0 miWNW (290°)5.8 mphOvercast
6:51 AM26.1 °F16.0 °F66 %30.19 in10.0 miNW (310°)6.9 mphOvercast
7:51 AM26.1 °F16.0 °F66 %30.19 in10.0 miNW (320°)5.8 mphMostly Cloudy
8:51 AM27.0 °F17.1 °F66 %30.19 in10.0 miNW (310°)5.8 mphMostly Cloudy
9:51 AM28.0 °F17.1 °F63 %30.21 in10.0 miWNW (290°)5.8 mphMostly Cloudy
10:51 AM30.9 °F15.1 °F52 %30.19 in10.0 miWNW (290°)9.2 mphMostly Cloudy
11:51 AM30.9 °F14.0 °F50 %30.15 in10.0 miVariable4.6 mphMostly Cloudy
12:51 PM33.1 °F12.9 °F43 %30.12 in10.0 miWest (260°)8.1 mphMostly Cloudy
1:51 PM34.0 °F12.9 °F42 %30.10 in10.0 miWest (260°)9.2 mphScattered Clouds
2:51 PM33.8 °F12.2 °F41 %30.09 in10.0 miWSW (240°)8.1 mphScattered Clouds
3:51 PM33.1 °F14.0 °F46 %30.09 in10.0 miWSW (250°)11.5 mphScattered Clouds
4:51 PM32.0 °F14.0 °F48 %30.09 in10.0 miWest (270°)10.4 mphScattered Clouds
5:51 PM30.0 °F15.1 °F54 %30.10 in10.0 miWSW (240°)9.2 mphScattered Clouds
6:51 PM30.9 °F15.1 °F52 %30.11 in10.0 miWSW (240°)10.4 mphMostly Cloudy
7:51 PM30.9 °F15.1 °F52 %30.11 in10.0 miSW (230°)11.5 mphMostly Cloudy
8:51 PM30.9 °F15.1 °F52 %30.11 in10.0 miWSW (240°)11.5 mphMostly Cloudy
9:51 PM30.9 °F16.0 °F54 %30.09 in10.0 miWSW (240°)12.7 mphMostly Cloudy
10:51 PM28.9 °F17.1 °F61 %30.09 in10.0 miSW (230°)10.4 mphMostly Cloudy
11:51 PM30.0 °F18.0 °F61 %30.08 in10.0 miWSW (240°)10.4 mphMostly Cloudy
Hourly data recorded from KEWR, located miles away from Staten Island, New York







STORIES FROM OUR PARTNERS